Regional Weather Roundup
Issued by NWS

Home | Current Version | Previous Version | Text Only | Print | Product List | Glossary On
Versions: 1 2 3 4 5 6 7 8 9 10 11 12 13 14 15 16 17 18 19 20 21 22 23 24 25 26 27 28 29 30 31 32 33 34 35 36 37 38 39 40 41 42 43 44 45 46 47 48 49 50
000
ASHW40 PHFO 230543
RWRHI

WEATHER ROUNDUP FOR HAWAII
NATIONAL WEATHER SERVICE HONOLULU HI
700 PM HST FRI MAY 22 2015

THIS IS AN AUTOMATED REPORT THAT HAS NOT BEEN QUALITY CONTROLLED.

NOTE..."FAIR" INDICATES FEW OR NO CLOUDS BELOW 12,000 FEET WITH NO
SIGNIFICANT WEATHER AND/OR OBSTRUCTIONS TO VISIBILITY.

* - THESE SITES REPORT LIMITED FIELDS

HIZ001>004-230600-
KAUAI-NIIHAU-

CITY           SKY/WX    TMP DP  RH WIND       PRES   REMARKS
LIHUE APT      CLOUDY    72  64  78 N10       30.02R
PORT ALLEN*    NOT AVBL
POIPU*           N/A     73 N/A N/A NE5G13      N/A
PRINCEVILLE*     N/A     70 N/A N/A MISG        N/A
KOKOLE POINT*  NOT AVBL
MOLOAA DAIRY*  NOT AVBL
WAIMEA HTS*      N/A     72  64  78 W1          N/A
PUU OPAE*        N/A     64  61  88 NE3G9       N/A
PUU LUA*       NOT AVBL
MAKAHA RIDGE*    N/A     64  61  88 NE7G17      N/A
$$

HIZ005>011-230600-
OAHU-

CITY           SKY/WX    TMP DP  RH WIND       PRES   REMARKS
HONOLULU       MOCLDY    75  69  81 N3        29.98R
KALAELOA       MOCLDY    75  66  73 E7        29.98R
KANEOHE MCB    RAIN      73  69  87 NE5       29.98R FOG
WHEELER FIELD  DRIZZLE   68  66  94 NW6       30.00R
BELLOWS*         N/A    N/A N/A N/A W3G9        N/A
KAHUKU*          N/A    N/A N/A N/A N5G13       N/A
WHEELER*       NOT AVBL
WAIANAE HARBOR NOT AVBL
DILLINGHAM*      N/A     75  66  73 MISG        N/A
KAHUKU TRN*      N/A     70  64  83 NE5G17      N/A
KAWAILOA*        N/A     66  64  94 N6G12       N/A
KII*             N/A     75  66  73 N15G22      N/A
MAKUA RANGE*     N/A     73  66  78 NE12G23     N/A
OAHU FOREST NW   N/A    N/A N/A N/A CALM        N/A
SCHOFIELD BRK*   N/A     70  66  88 MISG        N/A
SCHOFIELD S*   NOT AVBL
WAIANAE VLY*     N/A     68  64  88 VRB10G16    N/A
KUAOKALA*        N/A     70  64  83 N21G29      N/A
HONOULIUULI*   NOT AVBL
MOKUOLOE IS*     N/A    N/A N/A N/A MISG        N/A
PALEHUA*         N/A     64  57  77 NE5G12      N/A
WAIAWA PHB*    NOT AVBL
$$

HIZ012>013-230600-
MOLOKAI-

CITY           SKY/WX    TMP DP  RH WIND       PRES   REMARKS
MOLOKAI AIRPT  MOCLDY    73  66  78 N8        29.99S
KALAUPAPA      NOT AVBL
MAKAPULAPAI*     N/A     75  66  73 NE9G16      N/A
MOLOKAI 1*       N/A    N/A N/A N/A N3          N/A
PUU ALII*        N/A     59  58  95 CALM        N/A
$$

HIZ016-230600-
KAHOOLAWE-

CITY           SKY/WX    TMP DP  RH WIND       PRES   REMARKS
KAHOOLAWE*       N/A     70 N/A N/A NE10G16     N/A
HAKIOAWA*        N/A     72  67  84 MISG      30.42
HONOKANAIA*      N/A     78  66  66 W7        29.99R
KANELOA*         N/A     75  64  69 N12G17    30.03R
KEALIALALO*      N/A     73  66  78 NE9G18    29.99R
LUA MAKIKA*    NOT AVBL
$$

HIZ014>015-230600-
LANAI-

CITY           SKY/WX    TMP DP  RH WIND       PRES   REMARKS
LANAI CITY     FAIR      72  63  73 N7        30.03R
LANAI 1*         N/A     70  64  83 VRB8G18     N/A
$$

HIZ017>028-230600-
MAUI-

CITY           SKY/WX    TMP DP  RH WIND       PRES   REMARKS
KAHULUI        MOCLDY    77  68  73 NE7       29.98R
KAPALUA-W MAUI NOT AVBL
HANA AIRPORT   CLOUDY    73  66  78 CALM      30.02R
HANA*            N/A     75 N/A N/A W5          N/A
HALEAKALA SUMM   N/A     43   5  21 W12         N/A
MAALAEA BAY*   NOT AVBL
HALEAKALA*     NOT AVBL
KAUPO GAP*       N/A     61  59  94 CALM        N/A
KULA 1*          N/A     52  51  98 NW3         N/A
$$

HIZ023>026-230600-
BIG ISLAND OF HAWAII COAST AND LOWER SLOPES-

CITY           SKY/WX    TMP DP  RH WIND       PRES   REMARKS
KAILUA KONA    MOCLDY    78  68  71 W5        29.97R
HILO           PTCLDY    76  66  71 N6        29.98R
HONOKAA*       NOT AVBL
KAWAIHAE MWT*    N/A     79 N/A N/A NW6         N/A
KAWAIHAE*        N/A     77 N/A N/A W3          N/A
SOUTH POINT*     N/A     66 N/A N/A VRB8        N/A
UPOLU AIRPORT*   N/A    N/A N/A N/A N3          N/A
KAMUELA*       CLOUDY    64  63  94 CALM      30.10R
HAKALAU*         N/A     53  53 100 SE1         N/A
KALOKO-HONOKO*   N/A     77  68  73 SW3       29.97R
PALI 2*          N/A    N/A N/A N/A VRB5        N/A
KEALAKOMO*       N/A     70  59  68 SW3G9       N/A
KAUPULEHU*       N/A     72  64  78 N3          N/A
KAPAPALA*        N/A     66  64  92 NE1         N/A
LOWER KAHUKU*    N/A     61  61 100 N1          N/A
PUHE CS*         N/A     77  68  73 W3          N/A
PUHO CS*         N/A     77  68  72 W2          N/A
PTA KEAMUKU*     N/A    N/A N/A N/A CALM        N/A
WAIKOLOA*        N/A     72  66  83 N3          N/A
$$

HIZ027>028-230600-
BIG ISLAND OF HAWAII INTERIOR AND SUMMMITS-

CITY           SKY/WX    TMP DP  RH WIND       PRES   REMARKS
BRADSHAW FIELD PTCLDY    55  49  78 W5        30.28R
MK VISITOR CEN NOT AVBL
MAUNA KEA*       N/A     36 -17  10 NW44        N/A  WCI  20
MAUNA LOA*       N/A     45  34  65 MISG        N/A
MAUNA LOA 1*   NOT AVBL
PTA KIPUKA*      N/A     57  54  88 N2G8        N/A
PTA RANGE 17*    N/A     55  52  88 NW3G9       N/A
PTA WEST*        N/A     66  64  94 NW3         N/A
NENE CABIN*      N/A     52 N/A N/A E2          N/A
AHUMOA*          N/A     52  46  80 E3          N/A
PTA PORTABLE*  NOT AVBL
PUU MALI*        N/A     50  46  87 SW12        N/A
$$

HIC003-230600-
NORTHWEST ISLANDS-

CITY           SKY/WX    TMP DP  RH WIND       PRES   REMARKS
MIDWAY ISLAND  MOSUNNY  N/A N/A N/A E15       30.22S
MIDWAY NOS*    NOT AVBL
FRENCH FRIGATE NOT AVBL
$$

PHZ110>124-180-230600-
BUOY REPORTS

STATION/POSITION TIME  TEMP    WIND        PRES    WAVE   SWELL
                       AIR SEA DIR/SP/G            HT/PER HT/DIR
                 (UTC) (F)     (DEG/KT/KT) (MB)    (FT/S) (FT/D)
BUOY 51001       NOT AVBL
BUOY 51101       0500   73 76   50/ 16/ 19 1017.1R   8/ 8   7/360
BUOY 51100       NOT AVBL
BUOY 51002       0500   78 81   40/  6/  8 1014.6R   4/ 8   3/ 90
BUOY 51003       0500   78 80   50/  8/ 10 1014.8R   5/12   5
BUOY 51004       0400   77 80   80/  4/  6 1014.9R   5/14   5/180
BARBERS PT BUOY  NOT AVBL
WAIMEA BAY BUOY  0500      78                N/A     3/ 4   2/320
KAILUA BAY BUOY  0500      78                N/A     4/ 8   2/160
LANAI BUOY       NOT AVBL
BARBERS PT 2     0500      78                N/A     3/15   2/200
PAUWELA MAUI     0500      78                N/A     3/ 8   2/ 30
HILO             0500      78                N/A     4/ 8
KANEOHE BAY BUOY 0500      77                N/A     3/ 4   2/ 10
HANALEI KAUAI    0500      79                N/A     7/ 9   2/310
KAHULUI HARBOR   0500   76 78   10/  9/ 10 1015.1R
HONOLULU HARBOR  0500   75 79   70/  3/  7 1015.1R
KILO NALU        NOT AVBL
HILO HARBOR      0500   76 77  350/  7/  8 1014.9R
MOKUOLOE         0500      78              1015.4S
NAWILIWILI       0500   71 79  350/  6/ 12 1016.0R
WHOTS BUOY       NOT AVBL
BUOY 51028       NOT AVBL
$$

......................KEY........................................
  SKY/WX - SKY CONDITIONS/PRESENT WEATHER
  TMP    - TEMPERATURE IN FAHRENHEIT
  DWPT   - DEWPOINT IN FAHRENHEIT
  RH     - RELATIVE HUMIDITY IN PERCENT
  WIND   - DIRECTION AND SPEED /MPH FOR ISLANDS...KTS FOR BUOYS/
  PRES   - MEAN SEA LEVEL PRESSURE IN INCHES OF HG
  VSB    - VISIBILITY IN MILES
  HX     - HEAT INDEX
  WCI    - WIND CHILL INDEX
  VRB    - VARIABLE WIND DIRECTION
  N/A    - NOT AVAILABLE


USA.gov is the U.S. government's official web portal to all federal, state and local government web resources and services.